STARLINK-4609, 53619

Orbit data source: Space-Track

STARLINK-4609, 53619 is a payload satellite owned by SpaceX/Seattle (US) in LEO that was launched on Sun, 28 Aug 2022 UTC via an FALCON 9 launch vehicle from the Air Force Eastern Test Range (AFETR). Payload-class satellites include a variety of spacecraft equipped with specific instruments for various scientific and technological missions. These include communications satellites like Starlink; space stations such as the ISS; scientific satellites like the Hubble; Earth observation satellites from companies like Planet Labs, Umbra, and HawkEye 360; GPS; miniature CubeSats for education and research; and military/defense satellites.

Loading next visibility...
Identifier
53619, 2022-104AH
Orbit
LEO
Last TLE update
17 hours ago
Origin
Manufacturer
SpaceX/Seattle
Mission
Operational Commercial Communications
Bus & Motor
STARLINK, Unknown motor
Mass
300 kg wet, ~290 kg dry
Launch date (UTC)
2022-08-28 (3 years ago)
Launch vehicle
FALCON 9
Launch site
Air Force Eastern Test Range (AFETR)
Object type
Payload
Rocket body
Debris
Shape & HBR
Box + 1 Pan, 8.86 m
Radar Cross Section
13.562 m², Large (>1 m²)

Expand to show TLE details & history

TLE from 17 hours ago
0 STARLINK-4609
1 53619U 22104AH  25181.70294907  .00000164  00000-0  28374-4 0  9997
2 53619  53.2179 285.3286 0001035  89.1651 270.9460 15.08839947157595
Epoch: 2025-06-30T16:52Z
TLE epoch observation values (Epoch: 2025-06-30T16:52:14.799Z)
Latitude
-0.00001°
Longitude
113.25798°
Altitude
540.629 km
Speed
7.593 km/s
True Right ascension
19h 01m 18s
True Declination
0° 00' 00"
Sunlit
Object was in full shadow at epoch
Visualization orbit readout
Latitude
-52.47473°
Longitude
34.56693°
Altitude
558.69 km
Speed
7.582 km/s
Apparent Right ascension
11h 32m 24s
Apparent Declination
-50° 38' 18"
Sunlit
Object is in full shadow
Visualization observer readout
Local Sidereal Time
21:38:19
Azimuth
232.136° WSW
Elevation
-67.446°
Doppler factor
1
Orbital elements
Apogee altitude
540.704 km
Perigee altitude
539.272 km
Semi-major axis
6,918.125 km
Eccentricity
0.0001
Inclination
53.2179°
RAAN
285.3286°
Arg. of periapsis
89.1651°
True anomaly
Unknown
Mean anomaly
270.946°
Eccentric anomaly
Unknown
Mean motion
3.7719 °/min
Orbital period
95.44 mins
BSTAR
0.000028374
Loading maneuver chart data...
Loading SW <> Apogee altitude chart data...
Loading historical data...
Loading historical data...
Loading historical data...
Loading historical data...
Loading historical data...
Loading historical data...
Loading historical data...

STARLINK-4609 Visibility forecast

Observer location: undefined°, undefined°

Span
Click to sort rows by Start time (UTC) header in descending order
Start Az.
Max El. time (UTC)
Max El. Az.
Max El.
End time (UTC)
End Az.
6 mins2025-07-01 10:34:57.089Z267.755° W2025-07-01 10:37:57.089Z335.36° NNW30.14°2025-07-01 10:40:57.089Z32.92° NE
5 mins2025-07-01 15:36:57.089Z336.787° NNW2025-07-01 15:38:57.089Z26.113° NE30.91°2025-07-01 15:41:57.089Z93.954° ESE
6 mins2025-07-01 17:15:57.089Z282.545° WNW2025-07-01 17:17:57.089Z242.282° WSW27.786°2025-07-01 17:21:57.089Z164.78° S
6 mins2025-07-02 08:46:57.089Z200.274° SSW2025-07-02 08:49:57.089Z121.496° SE34.867°2025-07-02 08:52:57.089Z64.097° ENE
|